TimeCET,TemperatureF,Dew PointF,Humidity,Sea Level PressureIn,VisibilityMPH,Wind Direction,Wind SpeedMPH,Gust SpeedMPH,PrecipitationIn,Events,Conditions,WindDirDegrees,DateUTC
12:27 AM,59.0,59.0,100,29.98,1.6,SSW,4.6,-,N/A,Rain,Light Rain,210,2012-11-16 23:27:00
12:55 AM,57.2,57.2,100,29.98,1.2,WSW,6.9,-,N/A,Rain,Rain,240,2012-11-16 23:55:00
1:00 AM,58,57,97,29.98,1,WSW,6.9,,,Rain,Rain,240,2012-11-17 00:00:00
1:55 AM,57.2,57.2,100,29.98,3.1,WNW,6.9,-,N/A,Rain,Light Rain,300,2012-11-17 00:55:00
2:55 AM,57.2,57.2,100,29.98,4.3,WNW,6.9,-,N/A,,Mostly Cloudy,290,2012-11-17 01:55:00
3:55 AM,57.2,57.2,100,29.98,5.0,WNW,6.9,-,N/A,,Mostly Cloudy,300,2012-11-17 02:55:00
4:00 AM,58,57,95,29.99,5,WNW,6.9,,,,Mist,300,2012-11-17 03:00:00
4:55 AM,57.2,57.2,100,29.95,5.0,NW,6.9,-,N/A,,Mostly Cloudy,310,2012-11-17 03:55:00
5:55 AM,57.2,57.2,100,29.98,5.0,WNW,4.6,-,N/A,,Scattered Clouds,290,2012-11-17 04:55:00
6:55 AM,55.4,53.6,94,29.98,5.0,West,4.6,-,N/A,,Scattered Clouds,280,2012-11-17 05:55:00
7:00 AM,55,54,96,29.98,5,West,4.6,,,,Mist,280,2012-11-17 06:00:00
7:55 AM,57.2,57.2,100,29.98,5.0,West,2.3,-,N/A,,Scattered Clouds,280,2012-11-17 06:55:00
8:55 AM,59.0,59.0,100,29.98,5.0,NW,4.6,-,N/A,,Scattered Clouds,310,2012-11-17 07:55:00
9:55 AM,62.6,62.6,100,29.98,6.2,WNW,3.5,-,N/A,,Scattered Clouds,290,2012-11-17 08:55:00
10:00 AM,63,63,98,29.99,6,WNW,3.5,,,,Scattered Clouds,290,2012-11-17 09:00:00
10:55 AM,66.2,62.6,88,29.98,6.2,East,2.3,-,N/A,,Scattered Clouds,90,2012-11-17 09:55:00
11:55 AM,68.0,64.4,88,29.98,6.2,SSW,3.5,-,N/A,,Mostly Cloudy,200,2012-11-17 10:55:00
12:55 PM,68.0,64.4,88,29.95,6.2,East,9.2,-,N/A,,Mostly Cloudy,90,2012-11-17 11:55:00
1:00 PM,68,65,85,29.96,6,East,9.2,,,,Mostly Cloudy,90,2012-11-17 12:00:00
1:55 PM,68.0,64.4,88,29.95,6.2,East,10.4,-,N/A,,Mostly Cloudy,100,2012-11-17 12:55:00
2:55 PM,68.0,64.4,88,29.92,6.2,East,12.7,-,N/A,,Mostly Cloudy,90,2012-11-17 13:55:00
3:55 PM,64.4,64.4,100,29.92,3.7,East,9.2,-,N/A,,Mostly Cloudy,100,2012-11-17 14:55:00
4:00 PM,65,65,99,29.94,4,East,9.2,,,,Mist,100,2012-11-17 15:00:00
4:55 PM,62.6,62.6,100,29.92,3.7,East,8.1,-,N/A,Rain,Light Rain,100,2012-11-17 15:55:00
5:55 PM,60.8,60.8,100,29.92,5.0,East,5.8,-,N/A,,Mostly Cloudy,100,2012-11-17 16:55:00
6:55 PM,59.0,59.0,100,29.95,6.2,Calm,Calm,-,N/A,,Scattered Clouds,0,2012-11-17 17:55:00
7:00 PM,60,60,99,29.96,6,Calm,Calm,,,,Partly Cloudy,,2012-11-17 18:00:00
7:55 PM,59.0,59.0,100,29.95,6.2,Calm,Calm,-,N/A,,Scattered Clouds,0,2012-11-17 18:55:00
8:55 PM,59.0,59.0,100,29.95,6.2,West,3.5,-,N/A,,Scattered Clouds,260,2012-11-17 19:55:00
9:55 PM,59.0,59.0,100,29.95,6.2,WNW,2.3,-,N/A,,Scattered Clouds,300,2012-11-17 20:55:00
10:00 PM,59,59,98,29.96,6,WNW,2.3,,,,Partly Cloudy,300,2012-11-17 21:00:00
10:55 PM,59.0,59.0,100,29.95,6.2,NW,2.3,-,N/A,,Mostly Cloudy,310,2012-11-17 21:55:00
11:55 PM,59.0,59.0,100,29.95,6.2,WNW,4.6,-,N/A,,Scattered Clouds,290,2012-11-17 22:55:00